• In Romania
  • List of Countries
  • For 7 days
  • Water Temperature
  • Satellite Maps
  • Weather Map
  • Weather Widgets
  • user-avatar
    Login

    Hourly Weather Innsbruck

    Today, 22 November, Wednesday

    Time Temperature Precipitation Wind Pressure Humidity
    00:00 -4°C° 0 mm 2 mps 593 mmHg 82%
    01:00 -5°C° 0 mm 2 mps 593 mmHg 79%
    02:00 -5°C° 0 mm 2 mps 593 mmHg 78%
    03:00 -5°C° 0 mm 2 mps 593 mmHg 76%
    04:00 -5°C° 0 mm 2 mps 593 mmHg 75%
    05:00 -5°C° 0 mm 2 mps 592 mmHg 73%
    06:00 -5°C° 0 mm 2 mps 592 mmHg 72%
    07:00 -4°C° 0 mm 2 mps 593 mmHg 69%
    08:00 -3°C° 0 mm 2 mps 593 mmHg 71%
    09:00 -1°C° 0 mm 2 mps 594 mmHg 72%
    10:00 +1°C° 0 mm 2 mps 595 mmHg 74%
    11:00 +2°C° 0 mm 2 mps 595 mmHg 78%
    12:00 +3°C° 0 mm 2 mps 595 mmHg 81%
    13:00 +4°C° 0 mm 2 mps 595 mmHg 80%
    14:00 +2°C° 0 mm 2 mps 595 mmHg 79%
    15:00 +1°C° 0 mm 2 mps 594 mmHg 77%
    16:00 -1°C° 0 mm 2 mps 593 mmHg 76%
    17:00 -2°C° 0 mm 2 mps 593 mmHg 76%
    18:00 -3°C° 0 mm 2 mps 593 mmHg 76%
    19:00 -5°C° 0 mm 2 mps 592 mmHg 76%
    20:00 -6°C° 0 mm 3 mps 592 mmHg 76%
    21:00 -6°C° 0 mm 3 mps 592 mmHg 77%
    22:00 -6°C° 0 mm 3 mps 592 mmHg 78%
    23:00 -6°C° 0 mm 3 mps 592 mmHg 78%

    Tomorrow, 23 November, Thursday

    Time Temperature Precipitation Wind Pressure Humidity
    00:00 -6°C° 0 mm 3 mps 592 mmHg 79%
    01:00 -6°C° 0 mm 3 mps 592 mmHg 79%
    02:00 -6°C° 0 mm 3 mps 592 mmHg 79%
    03:00 -6°C° 0 mm 3 mps 592 mmHg 79%
    04:00 -6°C° 0 mm 3 mps 591 mmHg 79%
    05:00 -6°C° 0 mm 3 mps 591 mmHg 79%
    06:00 -7°C° 0 mm 3 mps 591 mmHg 79%
    07:00 -7°C° 0 mm 3 mps 591 mmHg 79%
    08:00 -5°C° 0 mm 3 mps 592 mmHg 78%
    09:00 -3°C° 0 mm 2 mps 593 mmHg 77%
    10:00 -1°C° 0 mm 2 mps 594 mmHg 77%
    11:00 +1°C° 0 mm 2 mps 594 mmHg 79%
    12:00 +2°C° 0 mm 2 mps 594 mmHg 81%
    13:00 +4°C° 0 mm 1 mps 595 mmHg 83%
    14:00 +3°C° 0 mm 1 mps 594 mmHg 81%
    15:00 +1°C° 0 mm 1 mps 594 mmHg 79%
    16:00 0°C° 0 mm 1 mps 593 mmHg 78%
    17:00 -1°C° 0 mm 1 mps 593 mmHg 76%
    18:00 -2°C° 0 mm 1 mps 593 mmHg 75%
    19:00 -3°C° 0 mm 1 mps 593 mmHg 73%
    20:00 -3°C° 0 mm 1 mps 594 mmHg 72%
    21:00 -3°C° 0 mm 1 mps 594 mmHg 70%
    22:00 -3°C° 0 mm 1 mps 594 mmHg 69%
    23:00 -3°C° 0 mm 1 mps 594 mmHg 69%

    Day after tomorrow, 24 November, Friday

    Time Temperature Precipitation Wind Pressure Humidity
    00:00 -3°C° 0 mm 1 mps 594 mmHg 68%
    01:00 -6°C° 0 mm 2 mps 594 mmHg 68%
    02:00 -6°C° 0 mm 2 mps 594 mmHg 69%
    03:00 -6°C° 0 mm 2 mps 594 mmHg 70%
    04:00 -6°C° 0 mm 2 mps 594 mmHg 71%
    05:00 -6°C° 0 mm 2 mps 594 mmHg 72%
    06:00 -6°C° 0 mm 2 mps 594 mmHg 73%
    07:00 -6°C° 0 mm 2 mps 594 mmHg 74%
    08:00 -5°C° 0 mm 2 mps 594 mmHg 74%
    09:00 -3°C° 0 mm 2 mps 595 mmHg 74%
    10:00 -1°C° 0 mm 2 mps 595 mmHg 73%
    11:00 +1°C° 0 mm 2 mps 595 mmHg 74%
    12:00 +2°C° 0 mm 2 mps 595 mmHg 75%
    13:00 +3°C° 0 mm 2 mps 595 mmHg 76%
    14:00 +1°C° 0 mm 2 mps 595 mmHg 77%
    15:00 -1°C° 0 mm 2 mps 595 mmHg 79%
    16:00 -2°C° 0 mm 2 mps 594 mmHg 80%
    17:00 -3°C° 0 mm 2 mps 594 mmHg 80%
    18:00 -3°C° 0 mm 2 mps 594 mmHg 80%
    19:00 -4°C° 0 mm 2 mps 594 mmHg 81%
    20:00 -4°C° 0 mm 2 mps 594 mmHg 81%
    21:00 -4°C° 0 mm 2 mps 594 mmHg 82%
    22:00 -4°C° 0 mm 2 mps 594 mmHg 83%
    23:00 -4°C° 0 mm 2 mps 594 mmHg 84%

    25 November, Saturday

    Time Temperature Precipitation Wind Pressure Humidity
    00:00 -5°C° 0 mm 2 mps 593 mmHg 85%
    01:00 -5°C° 0 mm 2 mps 593 mmHg 86%
    02:00 -6°C° 0 mm 3 mps 592 mmHg 87%
    03:00 -6°C° 0 mm 3 mps 592 mmHg 88%
    04:00 -6°C° 0 mm 3 mps 591 mmHg 90%
    05:00 -6°C° 0 mm 3 mps 591 mmHg 90%
    06:00 -6°C° 0 mm 3 mps 591 mmHg 90%
    07:00 -5°C° 0 mm 3 mps 590 mmHg 90%
    08:00 -4°C° 0 mm 3 mps 590 mmHg 89%
    09:00 -2°C° 0 mm 3 mps 590 mmHg 87%
    10:00 -1°C° 0 mm 3 mps 590 mmHg 86%
    11:00 -1°C° 0.2 mm 3 mps 591 mmHg 88%
    12:00 -1°C° 0.2 mm 3 mps 591 mmHg 89%
    13:00 +1°C° 0.2 mm 2 mps 591 mmHg 90%
    14:00 -1°C° 0.9 mm 2 mps 591 mmHg 92%
    15:00 -1°C° 0.9 mm 2 mps 591 mmHg 93%
    16:00 -2°C° 0.9 mm 2 mps 591 mmHg 95%
    17:00 -3°C° 0.8 mm 2 mps 591 mmHg 95%
    18:00 -4°C° 0.8 mm 2 mps 591 mmHg 95%
    19:00 -6°C° 0.8 mm 3 mps 592 mmHg 94%
    20:00 -7°C° 0.4 mm 3 mps 592 mmHg 94%
    21:00 -8°C° 0.4 mm 3 mps 592 mmHg 94%
    22:00 -8°C° 0.4 mm 3 mps 593 mmHg 93%
    23:00 -9°C° 0.1 mm 3 mps 592 mmHg 93%

    26 November, Sunday

    Time Temperature Precipitation Wind Pressure Humidity
    00:00 -9°C° 0.1 mm 2 mps 592 mmHg 93%
    01:00 -10°C° 0.1 mm 2 mps 592 mmHg 93%
    02:00 -10°C° 0.1 mm 2 mps 592 mmHg 93%
    03:00 -12°C° 0.1 mm 2 mps 592 mmHg 93%
    04:00 -13°C° 0.1 mm 2 mps 592 mmHg 93%
    05:00 -13°C° 0 mm 2 mps 592 mmHg 92%
    06:00 -14°C° 0 mm 2 mps 591 mmHg 92%
    07:00 -15°C° 0 mm 2 mps 591 mmHg 91%
    08:00 -14°C° 0 mm 2 mps 592 mmHg 87%
    09:00 -13°C° 0 mm 2 mps 593 mmHg 83%
    10:00 -13°C° 0 mm 3 mps 593 mmHg 79%
    11:00 -12°C° 0.1 mm 3 mps 593 mmHg 78%
    12:00 -12°C° 0.1 mm 3 mps 594 mmHg 76%
    13:00 -10°C° 0.1 mm 3 mps 594 mmHg 74%
    14:00 -12°C° 0.1 mm 3 mps 594 mmHg 77%
    15:00 -12°C° 0.1 mm 3 mps 594 mmHg 79%
    16:00 -12°C° 0.1 mm 3 mps 593 mmHg 81%
    17:00 -12°C° 0 mm 2 mps 593 mmHg 83%
    18:00 -13°C° 0 mm 2 mps 593 mmHg 85%
    19:00 -14°C° 0 mm 2 mps 593 mmHg 86%
    20:00 -14°C° 0 mm 2 mps 593 mmHg 86%
    21:00 -14°C° 0 mm 2 mps 593 mmHg 85%
    22:00 -15°C° 0 mm 2 mps 594 mmHg 85%
    23:00 -14°C° 0 mm 2 mps 594 mmHg 84%

    27 November, Monday

    Time Temperature Precipitation Wind Pressure Humidity
    00:00 -14°C° 0 mm 2 mps 594 mmHg 84%
    01:00 -14°C° 0 mm 2 mps 594 mmHg 84%
    02:00 -14°C° 0.1 mm 2 mps 594 mmHg 84%
    03:00 -14°C° 0.1 mm 2 mps 594 mmHg 84%
    04:00 -13°C° 0.1 mm 2 mps 594 mmHg 85%
    05:00 -13°C° 0.1 mm 2 mps 594 mmHg 86%
    06:00 -13°C° 0.1 mm 2 mps 594 mmHg 87%
    07:00 -13°C° 0.1 mm 2 mps 595 mmHg 88%
    08:00 -12°C° 0.1 mm 2 mps 595 mmHg 86%
    09:00 -10°C° 0.1 mm 2 mps 595 mmHg 84%
    10:00 -10°C° 0.1 mm 2 mps 596 mmHg 82%
    11:00 -9°C° 0.1 mm 2 mps 596 mmHg 79%
    12:00 -8°C° 0.1 mm 2 mps 596 mmHg 76%
    13:00 -8°C° 0.1 mm 2 mps 596 mmHg 73%
    14:00 -9°C° 0.1 mm 2 mps 595 mmHg 76%
    15:00 -9°C° 0.1 mm 2 mps 595 mmHg 79%
    16:00 -10°C° 0.1 mm 2 mps 594 mmHg 82%
    17:00 -12°C° 0 mm 2 mps 594 mmHg 84%
    18:00 -13°C° 0 mm 2 mps 594 mmHg 86%
    19:00 -14°C° 0 mm 2 mps 594 mmHg 88%
    20:00 -13°C° 0 mm 2 mps 594 mmHg 85%
    21:00 -13°C° 0 mm 2 mps 593 mmHg 83%
    22:00 -13°C° 0 mm 2 mps 593 mmHg 80%
    23:00 -12°C° 0.1 mm 2 mps 593 mmHg 80%
    Show more